[[{"header":{"parameterUnit":"m.s-1","parameterCategory":1,"la1":30.2991,"la2":30.254,"lo1":-89.0895,"lo2":-89.0444,"dy":0.0017,"dx":0.0017,"nx":28,"ny":28,"refTime":"2024-12-31T09:00:00:Z","depth":0,"parameterNumber":2,"parameterNumberName":"U-component_of_WINDS"},"data":[0,0,0,0,0,0,0,0,0,0,0,0,0,0,0,0,0,0,0,0,0,0,0,0,0,0,0,0,0,0,0,0,0,0,0,0,0,0,0,0,0,0,0,0,0,0,0,0,0,0,0,0,0,0,0,0,0,0,3.4141,3.4141,0,3.4192,3.4193,3.4193,3.4161,3.416,3.4158,3.4157,3.4212,3.4215,3.4218,0,0,0,0,0,0,0,0,0,0,0,0,0,3.4021,3.4024,3.4141,3.4141,3.4142,3.4192,3.4193,3.4193,3.4161,3.416,3.4158,3.4156,3.4211,3.4214,3.4218,0,0,0,0,0,0,0,0,0,0,0,0,0,3.4073,3.4024,3.4141,3.4132,3.4132,3.4192,3.4193,3.4194,3.4162,3.416,3.4157,3.4155,3.421,3.4214,3.4218,3.429,0,0,3.4231,3.4233,0,0,0,0,0,0,0,0,3.407,3.4077,3.4133,3.4133,3.4133,3.4168,3.4171,3.4226,3.4162,3.4151,3.4157,3.4154,3.4199,3.4204,3.4219,3.4293,3.4295,3.4232,3.4234,3.4236,3.4238,0,0,0,0,0,0,0,3.4067,3.4075,3.4161,3.4134,3.4134,3.4128,3.4133,3.4181,3.4187,3.4151,3.4149,3.4156,3.4199,3.4215,3.422,3.4296,3.4232,3.4236,3.4238,3.424,3.4439,3.4442,0,0,0,0,0,0,3.4063,3.4072,3.416,3.4163,3.4095,3.4132,3.4137,3.4159,3.4186,3.4188,3.4157,3.4154,3.4209,3.4215,3.4222,3.4313,3.4236,3.424,3.4243,3.4437,3.444,3.4443,0,0,0,0,0,0,3.4061,3.4071,3.4157,3.4117,3.4128,3.4136,3.4161,3.4161,3.4177,3.4191,3.4192,3.4172,3.4207,3.4216,3.4275,3.4314,3.4242,3.4246,3.4433,3.4438,3.4441,3.4492,0,0,0,0,0,0,3.4057,3.407,3.4096,3.4118,3.413,3.4208,3.4163,3.4164,3.4184,3.418,3.4205,3.4207,3.4206,3.4269,3.4279,3.4319,3.425,3.443,3.4435,3.444,3.4487,3.4498,3.4507,0,0,0,0,0,3.4053,3.4108,3.4097,3.4108,3.4162,3.421,3.4217,3.4214,3.4187,3.4215,3.4225,3.4207,3.4308,3.4275,3.4287,3.4328,3.4427,3.4434,3.444,3.4483,3.4496,3.4506,0,0,0,0,0,0,3.409,3.411,3.4099,3.4162,3.4185,3.4204,3.4239,3.4226,3.4257,3.4252,3.4247,3.4253,3.4316,3.4328,3.4291,3.4403,3.4364,3.4373,3.4393,3.4405,3.4415,3.4412,3.4253,0,0,0,0,0,3.4105,3.4141,3.4157,3.4211,3.4224,3.423,3.425,3.4246,3.427,3.4279,3.4293,3.4318,3.4356,3.4381,3.4416,3.4489,3.4497,3.4523,3.4533,3.4541,3.4549,3.4594,3.4608,3.4463,3.4463,3.4462,0,0,3.4137,3.4153,3.4176,3.4219,3.4236,3.4277,3.4238,3.428,3.4311,3.4286,3.4344,3.4355,3.4383,3.4451,3.4481,3.4462,3.4591,3.4549,3.4555,3.4559,3.4602,3.4616,3.4628,3.4467,3.4466,3.4465,0,0,3.4217,3.4231,3.428,3.4299,3.4325,3.433,3.4342,3.4365,3.4372,3.443,3.4414,3.4451,3.4515,3.4537,3.4557,3.4651,3.4638,3.4663,3.4714,3.4758,3.477,3.478,3.4818,3.4831,3.467,3.4671,3.4671,0,3.4254,3.4312,3.4307,3.4352,3.4374,3.4354,3.4406,3.4425,3.4462,3.4479,3.4457,3.4541,3.4557,3.4633,3.4657,3.4672,3.4689,3.466,3.4768,3.4778,3.4788,3.4824,3.4838,3.4674,3.4673,3.4673,3.4673,0,3.4359,3.44,3.4436,3.4475,3.45,3.4549,3.4554,3.4581,3.4576,3.4584,3.4646,3.4666,3.4708,3.4725,3.4719,3.4802,3.479,3.4768,3.4729,3.4805,3.484,3.4853,3.4678,3.4677,3.4676,3.4676,0,0,3.4461,3.4499,3.4513,3.4532,3.4562,3.4595,3.4645,3.4686,3.4712,3.4739,3.4784,3.4841,3.4823,3.4845,3.4843,3.4881,3.4961,3.4855,3.4856,3.4878,3.5059,3.5078,3.5094,3.4952,3.4954,3.4956,3.5058,0,3.4546,3.4632,3.4631,3.4712,3.4753,3.4737,3.4781,3.4806,3.4816,3.4854,3.4865,3.4908,3.4877,3.4892,3.4929,3.4943,3.4998,3.4935,3.4997,3.4999,3.4993,3.5111,3.5129,3.5225,3.5071,3.5073,3.5075,0,3.4656,3.4689,3.4774,3.4804,3.4821,3.486,3.4901,3.4936,3.4966,3.4971,3.4999,3.4992,3.5047,3.5006,3.5084,3.5041,3.5067,3.5078,3.5082,3.5089,3.5043,3.5125,3.5254,3.527,3.5095,3.5094,3.5092,0,3.4728,3.4793,3.4854,3.4871,3.4905,3.4935,3.4951,3.4978,3.5005,3.5041,3.5059,3.5101,3.5125,3.5159,3.5165,3.5133,3.5245,3.5203,3.5254,3.5254,3.528,3.5278,3.5418,3.5291,3.529,3.529,3.529,0,3.4824,3.4878,3.4888,3.4925,3.4987,3.4987,3.5049,3.5062,3.5089,3.5131,3.5119,3.516,3.5164,3.5207,3.5212,3.528,3.5289,3.5297,3.5299,3.53,3.53,3.5318,3.5313,3.5294,3.5293,3.5292,3.5292,0,3.4915,3.4923,3.4989,3.5018,3.5027,3.5071,3.5097,3.5135,3.5145,3.52,3.5213,3.5229,3.528,3.5289,3.5348,3.5352,3.5434,3.5426,3.5424,3.5424,3.5476,3.5473,3.5635,3.5659,3.5512,3.5514,3.5515,0,3.4977,3.5019,3.5053,3.5081,3.5099,3.5143,3.5171,3.5174,3.5204,3.5245,3.528,3.5329,3.5369,3.5452,3.5471,3.5518,3.5514,3.5568,3.5521,3.5523,3.552,3.5519,3.5525,3.5577,3.5579,3.558,3.5581,0,3.5089,3.5092,3.5132,3.5176,3.5209,3.5243,3.5276,3.53,3.5308,3.5343,3.5395,3.5426,3.5489,3.554,3.5588,3.5607,3.5598,3.5596,3.5611,3.5614,3.5613,3.5619,3.5452,3.5592,3.5591,3.559,3.559,3.5589,3.5171,3.5209,3.524,3.5287,3.5312,3.5344,3.5383,3.5399,3.5442,3.5493,3.5492,3.5551,3.5586,3.5649,3.5672,3.572,3.5703,3.5724,3.573,3.5736,3.5743,3.5603,3.5728,3.5728,3.5728,3.5727,3.5727,0,3.5285,3.5306,3.5348,3.5395,3.5434,3.542,3.5457,3.549,3.5542,3.5574,3.5615,3.5678,3.5729,3.5753,3.5804,3.5839,3.5836,3.5852,3.5852,3.5857,3.5753,3.5736,3.5854,3.5854,3.5854,3.5854,3.5854,3.5854,3.535,3.5415,3.5423,3.5503,3.5523,3.5581,3.5604,3.5635,3.5661,3.5732,3.5774,3.579,3.5821,3.5875,3.5923,3.5929,3.595,3.597,3.5974,3.5877,3.5864,3.5852,3.5837,3.5973,3.5974,3.6076,3.6076,3.6077]},{"header":{"parameterUnit":"m.s-1","parameterCategory":1,"la1":30.2991,"la2":30.254,"lo1":-89.0895,"lo2":-89.0444,"dy":0.0017,"dx":0.0017,"nx":28,"ny":28,"refTime":"2024-12-31T09:00:00:Z","depth":0,"parameterNumber":3,"parameterNumberName":"V-component_of_WINDS"},"data":[0,0,0,0,0,0,0,0,0,0,0,0,0,0,0,0,0,0,0,0,0,0,0,0,0,0,0,0,0,0,0,0,0,0,0,0,0,0,0,0,0,0,0,0,0,0,0,0,0,0,0,0,0,0,0,0,0,0,-0.5615,-0.5615,0,-0.5594,-0.5593,-0.5593,-0.5604,-0.5604,-0.5605,-0.5605,-0.5581,-0.558,-0.5579,0,0,0,0,0,0,0,0,0,0,0,0,0,-0.5666,-0.5665,-0.5615,-0.5615,-0.5615,-0.5594,-0.5593,-0.5593,-0.5603,-0.5604,-0.5605,-0.5605,-0.5582,-0.558,-0.5579,0,0,0,0,0,0,0,0,0,0,0,0,0,-0.5644,-0.5665,-0.5615,-0.5618,-0.5617,-0.5594,-0.5593,-0.5593,-0.5603,-0.5604,-0.5605,-0.5606,-0.5582,-0.5581,-0.5579,-0.5551,0,0,-0.5573,-0.5573,0,0,0,0,0,0,0,0,-0.5645,-0.5642,-0.5617,-0.5617,-0.5617,-0.5602,-0.5603,-0.5579,-0.5603,-0.5609,-0.5605,-0.5606,-0.5588,-0.5585,-0.5579,-0.555,-0.5549,-0.5573,-0.5572,-0.5572,-0.5571,0,0,0,0,0,0,0,-0.5647,-0.5643,-0.5607,-0.5617,-0.5617,-0.562,-0.5617,-0.5598,-0.5594,-0.5608,-0.5609,-0.5606,-0.5588,-0.5581,-0.5579,-0.5549,-0.5573,-0.5572,-0.5571,-0.557,-0.5499,-0.5498,0,0,0,0,0,0,-0.5648,-0.5644,-0.5607,-0.5606,-0.5634,-0.5618,-0.5616,-0.5606,-0.5594,-0.5593,-0.5606,-0.5607,-0.5584,-0.5581,-0.5578,-0.5547,-0.5572,-0.557,-0.5569,-0.5499,-0.5498,-0.5498,0,0,0,0,0,0,-0.565,-0.5645,-0.5608,-0.5626,-0.5621,-0.5616,-0.5606,-0.5605,-0.5599,-0.5592,-0.5591,-0.56,-0.5584,-0.5581,-0.5559,-0.5546,-0.5569,-0.5568,-0.55,-0.5499,-0.5498,-0.5483,0,0,0,0,0,0,-0.5651,-0.5645,-0.5634,-0.5625,-0.562,-0.5589,-0.5605,-0.5604,-0.5596,-0.5597,-0.5586,-0.5585,-0.5585,-0.5561,-0.5557,-0.5544,-0.5566,-0.5502,-0.55,-0.5498,-0.5484,-0.5481,-0.5478,0,0,0,0,0,-0.5653,-0.563,-0.5634,-0.5629,-0.5606,-0.5588,-0.5585,-0.5585,-0.5595,-0.5584,-0.558,-0.5585,-0.5548,-0.5559,-0.5554,-0.554,-0.5502,-0.55,-0.5498,-0.5486,-0.5482,-0.5478,0,0,0,0,0,0,-0.5636,-0.5629,-0.5633,-0.5607,-0.5598,-0.559,-0.5576,-0.5581,-0.5569,-0.5571,-0.5571,-0.5569,-0.5546,-0.5541,-0.5553,-0.5515,-0.5527,-0.5524,-0.5519,-0.5515,-0.5512,-0.5513,-0.5565,0,0,0,0,0,-0.563,-0.5616,-0.561,-0.5587,-0.5583,-0.5581,-0.5572,-0.5574,-0.5565,-0.5561,-0.5555,-0.5546,-0.5533,-0.5523,-0.551,-0.5484,-0.5482,-0.5472,-0.5469,-0.5467,-0.5464,-0.5452,-0.5448,-0.5491,-0.5491,-0.5491,0,0,-0.5616,-0.561,-0.5601,-0.5584,-0.5578,-0.5563,-0.5577,-0.5561,-0.5551,-0.5558,-0.5538,-0.5533,-0.5523,-0.55,-0.5489,-0.5495,-0.5453,-0.5465,-0.5463,-0.5461,-0.545,-0.5446,-0.5442,-0.549,-0.549,-0.549,0,0,-0.5584,-0.5578,-0.5559,-0.5553,-0.5544,-0.5543,-0.5539,-0.553,-0.5528,-0.5508,-0.5514,-0.5502,-0.5478,-0.5471,-0.5465,-0.5433,-0.5438,-0.5429,-0.5413,-0.5401,-0.5398,-0.5395,-0.5385,-0.5381,-0.5427,-0.5427,-0.5426,0,-0.5568,-0.5547,-0.5549,-0.5533,-0.5526,-0.5534,-0.5516,-0.551,-0.5496,-0.5492,-0.5499,-0.5471,-0.5464,-0.544,-0.5433,-0.5427,-0.5423,-0.543,-0.5398,-0.5395,-0.5393,-0.5383,-0.5379,-0.5426,-0.5426,-0.5426,-0.5426,0,-0.5528,-0.5514,-0.55,-0.5489,-0.548,-0.5463,-0.5463,-0.5454,-0.5457,-0.5456,-0.5436,-0.5429,-0.5416,-0.5411,-0.5412,-0.5387,-0.5392,-0.5398,-0.5411,-0.5388,-0.5379,-0.5375,-0.5424,-0.5425,-0.5425,-0.5425,0,0,-0.5483,-0.5475,-0.547,-0.5466,-0.5458,-0.5447,-0.5431,-0.542,-0.5413,-0.5404,-0.5391,-0.5372,-0.538,-0.5372,-0.5374,-0.5363,-0.5341,-0.5372,-0.5372,-0.5367,-0.5315,-0.5311,-0.5306,-0.5345,-0.5344,-0.5343,-0.5317,0,-0.5451,-0.5424,-0.5427,-0.5401,-0.5389,-0.5398,-0.5384,-0.5378,-0.5377,-0.5366,-0.5365,-0.5352,-0.5362,-0.5358,-0.5348,-0.5346,-0.5331,-0.5348,-0.5334,-0.5333,-0.5336,-0.5301,-0.5296,-0.527,-0.5313,-0.5312,-0.5312,0,-0.5409,-0.5401,-0.5375,-0.5371,-0.5366,-0.5354,-0.5345,-0.5334,-0.5328,-0.5328,-0.5322,-0.5326,-0.5311,-0.5324,-0.5304,-0.5316,-0.531,-0.5309,-0.5308,-0.5306,-0.5321,-0.53,-0.5262,-0.5259,-0.5306,-0.5307,-0.5307,0,-0.5381,-0.5363,-0.5345,-0.5342,-0.5336,-0.5328,-0.5325,-0.532,-0.5314,-0.5306,-0.5302,-0.5292,-0.5287,-0.5279,-0.5281,-0.529,-0.5261,-0.5274,-0.5262,-0.5262,-0.5255,-0.5255,-0.5216,-0.525,-0.5251,-0.5251,-0.5251,0,-0.5345,-0.5329,-0.5333,-0.5322,-0.5305,-0.5309,-0.5292,-0.529,-0.5286,-0.5276,-0.5282,-0.5272,-0.5275,-0.5266,-0.5267,-0.5252,-0.5249,-0.5249,-0.5249,-0.5248,-0.5249,-0.5245,-0.5247,-0.525,-0.525,-0.525,-0.525,0,-0.531,-0.5312,-0.5294,-0.5291,-0.529,-0.5278,-0.5276,-0.5266,-0.5266,-0.5253,-0.525,-0.5251,-0.524,-0.5242,-0.5229,-0.523,-0.5211,-0.5214,-0.5214,-0.5214,-0.5202,-0.5204,-0.516,-0.5155,-0.5192,-0.5191,-0.5191,0,-0.5287,-0.5275,-0.5272,-0.5266,-0.5263,-0.5253,-0.5248,-0.5252,-0.5246,-0.524,-0.5231,-0.5221,-0.5214,-0.5197,-0.5196,-0.5187,-0.519,-0.5175,-0.5188,-0.5189,-0.5191,-0.5192,-0.5191,-0.5172,-0.5172,-0.5172,-0.5171,0,-0.5246,-0.5249,-0.524,-0.5233,-0.5227,-0.5221,-0.5216,-0.5211,-0.5215,-0.5207,-0.5198,-0.5192,-0.5181,-0.5172,-0.5164,-0.5161,-0.5167,-0.5168,-0.5164,-0.5163,-0.5164,-0.5165,-0.5207,-0.5168,-0.5169,-0.5169,-0.5169,-0.5169,-0.5217,-0.5208,-0.5205,-0.5197,-0.5194,-0.5189,-0.5181,-0.5181,-0.5173,-0.5165,-0.5168,-0.5157,-0.5154,-0.5145,-0.5142,-0.5133,-0.5139,-0.5134,-0.5133,-0.5131,-0.5131,-0.5166,-0.5132,-0.5132,-0.5132,-0.5132,-0.5132,0,-0.5178,-0.5178,-0.517,-0.5163,-0.5157,-0.5164,-0.516,-0.5154,-0.5145,-0.5141,-0.5134,-0.5124,-0.5116,-0.5116,-0.5108,-0.5102,-0.5105,-0.51,-0.51,-0.51,-0.5126,-0.513,-0.5098,-0.5098,-0.5098,-0.5098,-0.5098,-0.5098,-0.5157,-0.5143,-0.5145,-0.513,-0.5129,-0.5119,-0.5116,-0.5113,-0.5111,-0.5099,-0.5093,-0.5093,-0.5091,-0.5084,-0.5078,-0.5078,-0.5075,-0.507,-0.5071,-0.5095,-0.5098,-0.5101,-0.5105,-0.5069,-0.5069,-0.5046,-0.5046,-0.5046]}]]